FHDOHA-13 Weather Reports


time (UTC)temp
C
wind
direction
speed
KPH
gust
KPH
rain 1hr
cm
rain 24hr
cm
rain mn
cm
humidity
%
barometer
mb
20260507073111 8 195 51.5 51.5 0.00 1.24 0.23 87 1012.2
20260507071611 8 195 51.5 51.5 0.00 1.24 0.23 86 1011.2
20260507070111 8 195 51.5 51.5 0.00 1.27 0.20 85 1011.1
20260507064611 8 195 51.5 51.5 0.00 1.27 0.20 86 1011.1
20260507063111 8 195 51.5 51.5 0.00 1.27 0.20 86 1011.1
20260507061611 9 195 51.5 51.5 0.00 1.27 0.20 86 1011.1
20260507060111 9 195 51.5 51.5 0.00 1.32 0.20 86 1010.0
20260507054611 9 195 51.5 51.5 0.00 1.32 0.20 85 1010.0
20260507053111 9 195 51.5 51.5 0.00 1.32 0.20 85 1010.0
20260507051611 8 195 51.5 51.5 0.00 1.32 0.20 84 1010.0
20260507050111 8 195 51.5 51.5 0.00 1.32 0.20 85 1010.0
20260507044611 9 195 51.5 51.5 0.00 1.32 0.20 85 1009.0
20260507043111 9 195 51.5 51.5 0.00 1.32 0.20 85 1009.0
20260507041611 9 195 51.5 51.5 0.00 1.32 0.20 85 1009.0
20260507040111 8 195 51.5 51.5 0.00 1.35 0.20 85 1009.0
20260507034611 8 195 51.5 51.5 0.00 1.35 0.20 85 1009.0
20260507033111 8 195 51.5 51.5 0.00 1.35 0.20 85 1009.0
20260507031611 8 195 51.5 51.5 0.05 1.35 0.20 85 1009.0
20260507030111 8 195 51.5 51.5 0.08 1.57 0.20 85 1009.0
20260507024611 8 195 51.5 51.5 0.08 1.57 0.20 85 1009.0
20260507023111 8 195 51.5 51.5 0.08 1.57 0.20 85 1008.0
20260507021611 8 195 51.5 51.5 0.10 1.55 0.15 85 1008.0
20260507020111 8 195 51.5 51.5 0.08 1.80 0.13 85 1008.0
20260507014611 8 195 51.5 51.5 0.08 1.78 0.13 85 1008.0
20260507013111 8 195 51.5 51.5 0.08 1.78 0.10 84 1008.0
20260507011611 8 195 51.5 51.5 0.05 1.73 0.08 84 1008.0
20260507010111 8 195 51.5 51.5 0.03 2.06 0.05 84 1008.0
20260507004611 8 195 51.5 51.5 0.03 2.06 0.03 84 1008.0
20260507003111 8 195 51.5 51.5 0.03 2.06 0.03 84 1008.0
20260507001611 8 195 51.5 51.5 0.03 2.06 0.03 84 1008.0
20260507000111 8 195 51.5 51.5 0.00 2.31 0.00 84 1008.0
20260506234611 8 195 51.5 51.5 0.00 2.31 0.00 84 1008.0
20260506233110 8 195 51.5 51.5 0.00 2.31 0.00 84 1008.0
20260506231611 8 195 51.5 51.5 0.00 2.31 0.00 84 1008.0
20260506230111 8 195 51.5 51.5 0.00 2.69 0.00 84 1008.0
20260506224611 8 195 51.5 51.5 0.00 2.69 0.00 84 1008.0
20260506223111 8 195 51.5 51.5 0.00 2.69 0.00 84 1008.0
20260506221611 8 195 51.5 51.5 0.00 2.69 0.00 84 1008.0
20260506220111 8 195 51.5 51.5 0.00 2.84 2.84 84 1008.0
20260506214611 8 195 51.5 51.5 0.00 2.84 2.84 84 1008.0
20260506213111 9 195 51.5 51.5 0.00 2.82 2.82 84 1006.9
20260506211611 9 195 51.5 51.5 0.00 2.82 2.82 84 1006.9
20260506210111 9 195 51.5 51.5 0.00 3.05 2.82 84 1006.9
20260506204611 10 195 51.5 51.5 0.00 3.05 2.82 84 1006.9
20260506203111 10 195 51.5 51.5 0.00 3.05 2.82 84 1006.8
20260506201611 10 195 51.5 51.5 0.03 3.05 2.82 83 1006.8
20260506200111 10 195 51.5 51.5 0.08 3.12 2.82 83 1006.8
20260506194611 10 195 51.5 51.5 0.08 3.12 2.82 83 1006.8
20260506193111 11 195 51.5 51.5 0.08 3.12 2.82 83 1006.7
20260506191611 11 195 51.5 51.5 0.05 3.10 2.79 84 1005.7
20260506190111 11 195 51.5 51.5 0.03 3.12 2.77 84 1005.7
20260506184611 11 195 51.5 51.5 0.00 3.12 2.74 85 1005.6
20260506183111 12 195 51.5 51.5 0.00 3.12 2.74 85 1005.6
20260506181610 12 195 51.5 51.5 0.00 3.12 2.74 85 1005.6
20260506180111 12 195 51.5 51.5 0.00 3.17 2.74 85 1005.6
20260506174611 12 195 51.5 51.5 0.00 3.17 2.74 85 1005.5
20260506173110 12 195 51.5 51.5 0.00 3.17 2.74 85 1005.5
20260506171611 12 195 51.5 51.5 0.00 3.17 2.74 85 1004.5
20260506170111 13 195 51.5 51.5 0.00 3.17 2.74 84 1004.4
20260506164611 14 195 51.5 51.5 0.00 3.17 2.74 83 1004.3
20260506163111 14 195 51.5 51.5 0.00 3.17 2.74 82 1004.3
20260506161611 15 195 51.5 51.5 0.00 3.17 2.74 79 1004.2
20260506160111 16 195 51.5 51.5 0.00 3.17 2.74 79 1004.2
20260506154611 16 195 51.5 51.5 0.00 3.17 2.74 79 1004.2
20260506153111 16 195 51.5 51.5 0.00 3.17 2.74 79 1004.2
20260506151610 17 195 51.5 51.5 0.00 3.17 2.74 75 1004.1
20260506150111 17 195 51.5 51.5 0.00 3.17 2.74 75 1004.1
20260506144611 17 195 51.5 51.5 0.00 3.17 2.74 75 1004.1
20260506143110 17 195 51.5 51.5 0.00 3.17 2.74 74 1004.0
20260506141611 16 195 51.5 51.5 0.00 3.17 2.74 77 1004.1
20260506140110 16 195 51.5 51.5 0.00 3.20 2.74 76 1004.1
20260506134611 13 195 51.5 51.5 0.00 3.20 2.74 84 1004.4
20260506133111 13 195 51.5 51.5 0.00 3.20 2.74 84 1004.4
20260506131611 13 195 51.5 51.5 0.30 3.20 2.74 84 1004.4
20260506130111 13 195 51.5 51.5 0.79 3.20 2.74 84 1004.4
20260506124611 13 195 51.5 51.5 0.84 3.17 2.72 84 1004.4
20260506123111 12 195 51.5 51.5 0.76 3.07 2.64 85 1004.5
20260506121610 12 195 51.5 51.5 0.56 2.87 2.44 85 1004.5
20260506120110 13 195 51.5 51.5 0.08 2.39 1.96 84 1004.4
20260506114610 14 195 51.5 51.5 0.00 2.34 1.88 80 1004.3
20260506113111 14 195 51.5 51.5 0.00 2.31 1.88 80 1004.3
20260506111610 13 195 51.5 51.5 0.00 2.31 1.88 82 1004.4
20260506110110 13 195 51.5 51.5 0.00 2.31 1.88 82 1004.4
20260506104611 13 195 51.5 51.5 0.00 2.31 1.88 82 1004.4
20260506103110 13 195 51.5 51.5 0.00 2.31 1.88 82 1004.4
20260506101611 13 195 51.5 51.5 0.00 2.31 1.88 81 1004.4
20260506100110 14 195 51.5 51.5 0.00 2.31 1.88 82 1004.3
20260506094610 15 195 51.5 51.5 0.00 2.31 1.88 84 1004.3
20260506093110 13 195 51.5 51.5 0.03 2.31 1.88 85 1004.4
20260506091611 13 195 51.5 51.5 0.03 2.31 1.85 84 1004.5
20260506090111 13 195 51.5 51.5 0.05 2.31 1.85 84 1004.5
20260506084610 12 195 51.5 51.5 0.05 2.31 1.85 84 1004.5
20260506083111 11 195 51.5 51.5 0.05 2.31 1.85 84 1004.6
20260506081610 11 195 51.5 51.5 0.03 2.29 1.83 84 1004.6
20260506080110 11 195 51.5 51.5 0.03 2.26 1.80 84 1004.6